En Direct

LFST 170700Z AUTO VRB03KT 8000 BKN023 BKN031 OVC045 01/M01 Q1035 TEMPO 4000 BR BKN005


TAF AMD LFST 170546Z 1706/1806 VRB03KT 7000 FEW010 BKN025 TEMPO 1706/1711 4000 BR BKN005 TEMPO 1800/1806 3000 BR OVC003

Nos Avions

7 avions disponibles et entretenus par un atelier agréé, permettant tous types de vols (formation, promenade, voyage…)

l'école de pilotage

PPL, LAPL, Vol de nuit, SEP… Toutes ces formations sont dispensées par nos instructeurs bénévoles.
Formation Théorique Mermoz via la FFA

Notre Plateforme

Nous sommes basés à l’aéroport de Strasbourg-Entzheim (LFST) en plein coeur de l’Alsace qui permet de voyager rapidement outre Rhin, mais également de profiter des paysages variés

Nos réseaux

Suivez-nous sur les réseaux sociaux